Header for Extended Forecast Station List Page

Search by: ID | Name | Date | Parm | Value | Avg | % Avg
Sort by: ID | Name | Date | Parm | Value | Avg | % Avg

Enter search or view all records.

Click on id for station plot
#IDNameDateParmValueAvg% Avg
0MACI1BIG LOST-MACKAY RESERVOIR NEAR MACKAY11-13-2018INFLOW (KAF)374872
1BULO3BULLY CREEK-BULLY CREEK DAM11-13-2018INFLOW (KAF)3465
2RIDI1WILLOW CREEK-RIRIE DAM11-13-2018INFLOW (KAF)9996
3LWRI1LITTLE WOOD-LITTLE WOOD DAM11-13-2018INFLOW (KAF)111571
4HWRI1BIG LOST-AT HOWELL RANCH NEAR CHILLY11-13-2018DISCHARGE (KAF)2119108
5DEDI1DEADWOOD-NEAR LOWMAN11-13-2018INFLOW (KAF)151978
6ARDW1ENTIAT-NEAR ARDENVOIR11-13-2018DISCHARGE (KAF)192285
7BERO3MALHEUR-AGENCY VALLEY DAM11-13-2018INFLOW (KAF)112250
8MYKO3MCKAY CREEK-NEAR PILOT ROCK11-13-2018DISCHARGE (KAF)2525101
9MAGI1BIG WOOD-MAGIC DAM11-13-2018INFLOW (KAF)223074
10HOTI1BRUNEAU-NEAR HOT SPRINGS11-13-2018DISCHARGE (KAF)173254
11WRMO3MALHEUR-WARM SPRINGS DAM11-13-2018INFLOW (KAF)123534
12VALO3MALHEUR-NEAR VALE11-13-2018DISCHARGE (KAF)213561
13HALI1BIG WOOD-AT HAILEY11-13-2018DISCHARGE (KAF)343793
14BUDW1BUMPING-BUMPING LAKE DAM11-13-2018INFLOW (KAF)123832
15BIGI1BOISE-AT GLENWOOD BRIDGE11-13-2018DISCHARGE (KAF)10139257
16GIBO3UMATILLA-NEAR GIBBON11-13-2018DISCHARGE (KAF)354381
17STRM8ST. REGIS-NEAR ST. REGIS11-13-2018DISCHARGE (KAF)174438
18RCCM8ROCK CREEK-NEAR CLINTON11-13-2018DISCHARGE (KAF)5546119
19SATI1ST MARIES-NEAR SANTA11-13-2018DISCHARGE (KAF)154832
20KADW1KACHESS-KACHESS DAM11-13-2018INFLOW (KAF)294860
21TNAW1TEANAWAY-BELOW FORKS11-13-2018DISCHARGE (KAF)245047
22KEDW1YAKIMA-KEECHELUS LAKE11-13-2018INFLOW (KAF)305159
23DLGM8CLARK FORK-AT DEER LODGE11-13-2018DISCHARGE (KAF)7361118
24PIHI1PORTNEUF-AT POCATELLO11-13-2018DISCHARGE (KAF)556881
25RILW1TIETON-RIMROCK LAKE NEAR RIMROCK11-13-2018INFLOW (KAF)327145
26EASW1YAKIMA-AT EASTON11-13-2018DISCHARGE (KAF)647684
27ARAI1SF BOISE-ANDERSON RANCH DAM11-13-2018INFLOW (KAF)637980
28PATW1METHOW-NEAR PATEROS11-13-2018DISCHARGE (KAF)829686
29NACW1NACHES-NEAR NACHES11-13-2018DISCHARGE (KAF)449646
30TEAI1TETON-NEAR ST. ANTHONY11-13-2018DISCHARGE (KAF)11497118
31CSDI1NF PAYETTE-CASCADE DAM11-13-2018INFLOW (KAF)639864
32CLUW1CLE ELUM-CLE ELUM LAKE11-13-2018INFLOW (KAF)6010657
33OWYO3OWYHEE-OWYHEE DAM11-13-2018INFLOW (KAF)6310957
34PDTO3UMATILLA-AT PENDLETON11-13-2018DISCHARGE (KAF)8610980
35CHEI1FALL RIVER-NEAR CHESTER11-13-2018DISCHARGE (KAF)10911198
36UMAO3UMATILLA-NEAR UMATILLA11-13-2018DISCHARGE (KAF)118111106
37IPDI1HENRYS FORK-ISLAND PARK DAM11-13-2018INFLOW (KAF)7811269
38JLKW4SNAKE-JACKSON LAKE AT DAM11-13-2018INFLOW (KAF)9911586
39CLFW1NACHES-NEAR CLIFFDEL11-13-2018DISCHARGE (KAF)5211644
40LAUW1KETTLE-AT LAURIER11-13-2018DISCHARGE (KAF)10212184
41WSRI1WEISER-NEAR WEISER11-13-2018DISCHARGE (KAF)7612760
42BONM8BLACKFOOT-NEAR BONNER11-13-2018DISCHARGE (KAF)186131141
43WGCM8MF FLATHEAD-NEAR WEST GLACIER11-13-2018DISCHARGE (KAF)10615469
44CHDW1CHELAN-LAKE CHELAN DAM11-13-2018INFLOW (KAF)14916192
45TCHW1WALLA WALLA-NEAR TOUCHET11-13-2018DISCHARGE (KAF)10316164
46MONO3NF JOHN DAY-AT MONUMENT11-13-2018DISCHARGE (KAF)8216649
47FCFM8NF FLATHEAD-NEAR COLUMBIA FALLS11-13-2018DISCHARGE (KAF)15817590
48PRTI1PRIEST-NEAR PRIEST RIVER11-13-2018DISCHARGE (KAF)6621131
49PARI1BOISE-NEAR PARMA11-13-2018DISCHARGE (KAF)230214107
50BITM8BITTERROOT-NEAR MISSOULA11-13-2018DISCHARGE (KAF)19022087
51HHWM8SF FLATHEAD-HUNGRY HORSE DAM11-13-2018INFLOW (KAF)22423894
52HODO3HOOD-NEAR TUCKER BRIDGE11-13-2018DISCHARGE (KAF)22226384
53UNDW1WHITE SALMON-NEAR UNDERWOOD11-13-2018DISCHARGE (KAF)22027680
54TONW1OKANOGAN-NEAR TONASKET11-13-2018DISCHARGE (KAF)25828491
55UMTW1YAKIMA-AT UMTANUM11-13-2018DISCHARGE (KAF)22828580
56SERO3JOHN DAY-AT SERVICE CK11-13-2018DISCHARGE (KAF)15428754
57JKSW4SNAKE-NEAR JACKSON11-13-2018DISCHARGE (KAF)321299107
58PESW1WENATCHEE-AT PESHASTIN11-13-2018DISCHARGE (KAF)19930765
59ABOM8CLARK FORK-ABOVE MISSOULA11-13-2018DISCHARGE (KAF)411333123
60PITW1KLICKITAT-NEAR PITT11-13-2018DISCHARGE (KAF)28433884
61ANTI1HENRYS FORK-AT ST. ANTHONY11-13-2018DISCHARGE (KAF)349341102
62ALPW4SNAKE-NEAR ALPINE11-13-2018DISCHARGE (KAF)374371101
63EMMI1PAYETTE-NEAR EMMETT11-13-2018DISCHARGE (KAF)27838472
64TRYO3GRANDE RONDE-TROY11-13-2018DISCHARGE (KAF)20938654
65REXI1HENRYS FORK-AT REXBURG11-13-2018DISCHARGE (KAF)456427107
66PARW1YAKIMA-NEAR PARKER11-13-2018DISCHARGE (KAF)36953968
67HEII1SNAKE-NEAR HEISE11-13-2018DISCHARGE (KAF)33455960
68BELM8CLARK FORK-BELOW MISSOULA11-13-2018DISCHARGE (KAF)602561107
69PLDI1SF SNAKE-PALISADES DAM11-13-2018INFLOW (KAF)58659898
70DWRI1NF CLEARWATER-DWORSHAK DAM11-13-2018INFLOW (KAF)28661846
71MILI1SNAKE-AT MILNER11-13-2018DISCHARGE (KAF)446527
72SRGM8CLARK FORK-AT ST REGIS11-13-2018DISCHARGE (KAF)758744102
73SNAI1SNAKE-AT BLACKFOOT11-13-2018DISCHARGE (KAF)55375274
74KIOW1YAKIMA-AT KIONA11-13-2018DISCHARGE (KAF)53278268
75BFTI1SNAKE-NEAR BLACKFOOT11-13-2018DISCHARGE (KAF)56179571
76ORFI1CLEARWATER-AT OROFINO11-13-2018DISCHARGE (KAF)45980257
77SIFI1SNAKE-AB EAGLE ROCK NR IDAHO FALLS11-13-2018DISCHARGE (KAF)64380780
78LYDM8KOOTENAI-LIBBY DAM11-13-2018INFLOW (KAF)75380993
79SHYI1SNAKE-NEAR SHELLEY11-13-2018DISCHARGE (KAF)62681677
80COEI1COEUR D ALENE-COEUR D ALENE LAKE11-13-2018INFLOW (KAF)33190736
81WHBI1SALMON-AT WHITEBIRD11-13-2018DISCHARGE (KAF)975105892
82CFMM8FLATHEAD-AT COLUMBIA FALLS11-13-2018DISCHARGE (KAF)879115076
83LEOI1KOOTENAI-AT LEONIA11-13-2018DISCHARGE (KAF)25221357186
84LLKW1SPOKANE-AT LONGLAKE11-13-2018INFLOW (KAF)608141243
85MODO3DESCHUTES-AT MOODY NR BIGGS11-13-2018DISCHARGE (KAF)1351148391
86AFRI1SNAKE-AMERICAN FALLS RESERVOIR11-13-2018INFLOW (KAF)1207149281
87KERM8FLATHEAD-KERR DAM11-13-2018INFLOW (KAF)1012149568
88SPDI1CLEARWATER-AT SPALDING11-13-2018DISCHARGE (KAF)1105188059
89SWAI1SNAKE-BELOW SWAN FALLS11-13-2018DISCHARGE (KAF)1780262068
90NOXM8CLARK FORK-NOXON RAPIDS DAM11-13-2018INFLOW (KAF)2875362779
91CABI1CLARK FORK-CABINET GORGE DAM11-13-2018INFLOW (KAF)3165379783
92WEII1SNAKE-AT WEISER11-13-2018DISCHARGE (KAF)2629382269
93BRNI1SNAKE-BROWNLEE DAM11-13-2018INFLOW (KAF)2816396571
94ALFW1PEND OREILLE-ALBENI FALLS DAM11-13-2018INFLOW (KAF)3205444472
95ANAW1SNAKE-NEAR ANATONE11-13-2018DISCHARGE (KAF)4174607269
96LGDW1SNAKE-LOWER GRANITE DAM11-13-2018INFLOW (KAF)5280816365
97LGSW1SNAKE-LITTLE GOOSE DAM11-13-2018INFLOW (KAF)5280823164
98IHDW1SNAKE-ICE HARBOR DAM11-13-2018INFLOW (KAF)5460829366
99LMNW1SNAKE-LOWER MONUMENTAL DAM11-13-2018INFLOW (KAF)5460837965
100GCDW1COLUMBIA-GRAND COULEE DAM11-13-2018INFLOW (KAF)1887517162110
101WANW1COLUMBIA-WANAPUM DAM11-13-2018INFLOW (KAF)2165020411106
102PRWW1COLUMBIA-PRIEST RAPIDS DAM11-13-2018INFLOW (KAF)2165020709105
103CHJW1COLUMBIA-CHIEF JOSEPH DAM11-13-2018INFLOW (KAF)204742235492
104WELW1COLUMBIA-WELLS DAM11-13-2018INFLOW (KAF)208232278791
105RRHW1COLUMBIA-ROCKY REACH DAM11-13-2018INFLOW (KAF)214242332292
106MCDW1COLUMBIA-MCNARY DAM11-13-2018INFLOW (KAF)277383124289
107JDAO3COLUMBIA-JOHN DAY DAM11-13-2018INFLOW (KAF)290613256289
108TDAO3COLUMBIA-THE DALLES DAM11-13-2018INFLOW (KAF)296713685881
109BONO3COLUMBIA-BONNEVILLE DAM11-13-2018INFLOW (KAF)304023926577
110BFEI1KOOTENAI-AT BONNERS FERRY11-13-2018STAGE (FT)MMM
111DRMM8CLARK FORK-NR DRUMMOND11-13-2018DISCHARGE (KAF)155MM
112HOPI1PEND OREILLE-PEND OREILLE LAKE NR HOPE11-13-2018LAKE ELEVATION (FT)MMM
113SPOW1SPOKANE-AT SPOKANE11-13-2018DISCHARGE (KAF)386MM
114SJMI1ST JOE-AT ST MARIES11-13-2018STAGE (FT)MMM
115CIBW1COLUMBIA-AT INTL BOUNDARY11-13-2018DISCHARGE (KAF)18071MM
116LUCI1BOISE-LUCKY PEAK DAM11-13-2018INFLOW (KAF)99MM